Sierra Vista, AZ

2:00 AM MST on April 29, 2017 (GMT -0700)
Sierra Vista Municipal-Libby Army Air Field

Weather History for KFHU - August, 2013

Change the Weather History Date:

Thursday, August 15, 2013

  Actual Average Record
Temperature  
Mean Temperature 80 °F -  
Max Temperature 91 °F 86 °F 98 °F (2015)
Min Temperature 69 °F 67 °F 58 °F (1985)
Cooling Degree Days 15    
Growing Degree Days 30 (Base 50)    
Moisture  
Dew Point 56 °F    
Average Humidity 48    
Maximum Humidity 73    
Minimum Humidity 23    
Precipitation  
Precipitation 0.47 in - - ()
Sea Level Pressure  
Sea Level Pressure 30.02 in    
Wind  
Wind Speed 9 mph (ESE)    
Max Wind Speed 31 mph    
Max Gust Speed 44 mph    
Visibility 8 miles    
Events Rain , Thunderstorm    
Averages and records for this station are not official NWS values.
T = Trace of Precipitation, MM = Missing Value Source: NWS Daily Summary

Daily Weather History Graph

Daily Weather History Graph

Search for Another Location

Airport or City:

Trip Planner

Search our weather history database for the weather conditions in past years. The results will help you decide how hot, cold, wet, or windy it might be!

Date:

Astronomy

Aug. 15, 2013 Rise Set
Actual Time 5:46 AM MST 7:04 PM MST
Civil Twilight 5:21 AM MST 7:29 PM MST
Nautical Twilight 4:50 AM MST 8:00 PM MST
Astronomical Twilight 4:18 AM MST 8:31 PM MST
Moon 2:18 PM MST (8/15) 12:04 AM MST (8/15)
Length of Visible Light 14h 08m
Length of Day
13h 17m
Waxing Gibbous, 65% of the Moon is Illuminated
Aug 15
Waxing Gibbous
Aug 20
Full
Aug 28
Last Quarter
Sep 5
New
Sep 12
First Quarter

Hourly Weather History & Observations

Time (MST) Temp. Heat Index Dew Point Humidity Pressure Visibility Wind Dir Wind Speed Gust Speed Precip Events Conditions
12:55 AM 71.6 °F - 55.4 °F 57% 29.95 in 10.0 mi South 13.8 mph - N/A   Overcast
1:55 AM 71.6 °F - 53.6 °F 53% 29.92 in 10.0 mi South 9.2 mph - N/A   Mostly Cloudy
2:55 AM 69.8 °F - 57.2 °F 64% 29.96 in 10.0 mi NE 4.6 mph - N/A   Overcast
3:55 AM 69.8 °F - 57.2 °F 64% 29.99 in 10.0 mi Calm Calm - N/A   Overcast
4:55 AM 69.8 °F - 60.8 °F 73% 30.00 in 10.0 mi Calm Calm - N/A   Mostly Cloudy
8:55 AM 78.8 °F - 57.2 °F 47% 30.02 in 10.0 mi NNE 9.2 mph - N/A   Mostly Cloudy
9:55 AM 82.4 °F 81.7 °F 55.4 °F 39% 30.02 in 10.0 mi Calm Calm - N/A   Mostly Cloudy
10:55 AM 86.0 °F 84.5 °F 55.4 °F 35% 30.01 in 10.0 mi ESE 8.1 mph - N/A   Mostly Cloudy
11:55 AM 87.8 °F - 51.8 °F 29% 29.99 in 10.0 mi SE 9.2 mph - N/A   Scattered Clouds
12:55 PM 89.6 °F - 51.8 °F 27% 29.96 in 10.0 mi East 11.5 mph 17.3 mph N/A   Scattered Clouds
1:55 PM 91.4 °F - 50.0 °F 24% 29.96 in 10.0 mi East 8.1 mph - N/A   Scattered Clouds
2:55 PM 91.4 °F - 48.2 °F 23% 29.93 in 10.0 mi Variable 5.8 mph - N/A   Scattered Clouds
4:56 PM 91.0 °F - 48.9 °F 23% 29.91 in 10.0 mi NE 5.8 mph - N/A   Mostly Cloudy
5:56 PM 89.1 °F - 48.9 °F 25% 29.91 in 10.0 mi NNE 3.5 mph - N/A   Clear
6:56 PM 88.0 °F - 51.1 °F 28% 29.93 in 10.0 mi Calm Calm - N/A   Scattered Clouds
7:15 PM 87.8 °F - 51.8 °F 29% 30.13 in 10.0 mi Calm Calm - N/A Thunderstorm Thunderstorm
7:39 PM 80.6 °F 80.5 °F 55.4 °F 42% 30.15 in 10.0 mi NE 18.4 mph 34.5 mph 0.00 in Rain , Thunderstorm Light Thunderstorms and Rain
7:48 PM 71.6 °F - 60.8 °F 69% 30.16 in 1.8 mi SE 31.1 mph 43.7 mph 0.17 in Rain , Thunderstorm Heavy Thunderstorms and Rain
7:51 PM 71.6 °F - 59.0 °F 64% 30.17 in 1.0 mi SE 20.7 mph 43.7 mph 0.29 in Rain , Thunderstorm Heavy Thunderstorms and Rain
7:56 PM 73.0 °F - 57.0 °F 57% 29.99 in 1.0 mi East 20.7 mph 36.8 mph 0.37 in Rain , Thunderstorm Heavy Thunderstorms and Rain
7:58 PM 73.4 °F - 55.4 °F 53% 30.17 in 1.5 mi ESE 18.4 mph 34.5 mph 0.02 in Rain , Thunderstorm Heavy Thunderstorms and Rain
8:00 PM 73.4 °F - 55.4 °F 53% 30.17 in 2.0 mi East 16.1 mph 33.4 mph 0.04 in Rain , Thunderstorm Heavy Thunderstorms and Rain
8:02 PM 75.2 °F - 55.4 °F 50% 30.17 in 3.0 mi ENE 11.5 mph 33.4 mph 0.05 in Rain , Thunderstorm Heavy Thunderstorms and Rain
8:35 PM 77.0 °F - 60.8 °F 57% 30.16 in 10.0 mi SW 12.7 mph - 0.10 in   Partly Cloudy
8:56 PM 75.0 °F - 60.1 °F 60% 29.97 in 10.0 mi SW 13.8 mph - 0.10 in   Clear
9:56 PM 73.9 °F - 62.1 °F 66% 29.98 in 10.0 mi Calm Calm - N/A   Clear
10:55 PM 73.4 °F - 62.6 °F 69% 29.97 in 10.0 mi Calm Calm - N/A   Partly Cloudy
11:55 PM 77.0 °F - 57.2 °F 50% 29.96 in 10.0 mi South 9.2 mph - N/A   Partly Cloudy